"Pseudo-MPEC" for CEJJ672

Created 2026 Apr 16 23:35:09 UT using Find_Orb

Click here for an explanation of pseudo-MPECs

 
 Astrometry: 
     CEJJ672*1C2026 04 16.35148214 55 43.064+05 04 46.96   ~4G95 20.52GVNEOCPG96
     CEJJ672 1C2026 04 16.35662514 55 46.096+05 04 37.74   ~4G95 20.58GVNEOCPG96
     CEJJ672 1C2026 04 16.36177414 55 49.163+05 04 28.34   ~4G95 20.61GVNEOCPG96
     CEJJ672 1C2026 04 16.36692914 55 52.223+05 04 18.77   ~4G95 20.70GVNEOCPG96
     CEJJ672  C2026 04 16.39399714 56 08.036+05 03 26.45   ~4GAK 20.1 GWNEOCPH01
     CEJJ672  C2026 04 16.39733614 56 10.034+05 03 20.21   ~4GAK 20.1 GWNEOCPH01
     CEJJ672  C2026 04 16.40893014 56 16.983+05 02 58.53   ~4GAK 20.6 GWNEOCPH01
     CEJJ672  C2026 04 16.42001414 56 23.636+05 02 37.89   ~4GAK 20.0 GWNEOCPH01
     CEJJ672 1C2026 04 16.92286015 01 54.275+04 46 07.00   ~4GMZ 19.7 GXNEOCP033
     CEJJ672 1C2026 04 16.92369015 01 54.808+04 46 05.40   ~4GMZ 20.2 GXNEOCP033
     CEJJ672 KC2026 04 16.94260115 02 07.29 +04 45 36.8    ~4GNZ       VNEOCP104
     CEJJ672 KB2026 04 16.95912915 02 17.59 +04 45 02.2    ~4GNZ 20.7 GVNEOCPL01
     CEJJ672 KC2026 04 16.95970115 02 18.25 +04 45 02.5    ~4GNZ 19.9 GVNEOCP104
     CEJJ672 IB2026 04 16.96361915 02 20.49 +04 44 53.0    ~4GNZ 19.9 GVNEOCPL01

Station data:
(033) Karl Schwarzschild Observatory, Tautenburg  (N50.980139 E11.711240)
   Germany.  Observer B. Stecklum. 1.34-m f/3 Schmidt + CCD.
(104) San Marcello Pistoiese  (N44.064178 E10.803750)  Italy.  Observers P.
   Bacci, M. Maestripieri. Measurers P. Bacci, L. Tesi, G. Fagioli. 0.60-m
   reflector + CCD.
(G96) Mt. Lemmon Survey  (N32.442729 W110.788720)  US/Arizona.  Observer E.
   J. Christensen. Measurers T. Beuden, V. F. Carvajal, D. Fay, J. B.
   Fazekas, D. C. Fuls, A. R. Gibbs, A. D. Grauer, H. Gröller, J. K. Hogan,
   R. A. Kowalski, S. M. Larson, G. J. Leonard, D. Rankin, R. L. Seaman, F.
   C. Shelly, K. W. Wierzchoś. 1.5-m reflector + 10K CCD.
(H01) Magdalena Ridge Observatory, Socorro  (N33.984833 W107.189333)  US/New
   Mexico.  Observers W. H. Ryan, E. V. Ryan. Measurer W. H. Ryan. 2.4-m
   f/8.9 reflector + CCD.
(L01) Višnjan Observatory, Tičan  (N45.290897 E13.749300)  Croatia.
   Observers K. Korlević, L. Poropat. Measurer K. Korlevic. 1.0-m f/2.9
   reflector + CCD.

Orbital elements:  CEJJ672
   Perihelion 2026 May 16.544718 +/- 0.495 TT = 13:04:23.6 (JD 2461177.044718)
Epoch 2026 Apr 17.0 TT = JDT 2461147.5   Earth MOID: 0.0003   Ju: 0.8118
M 353.107769859 +/- 0.19            Ma: 0.0379                   AutoNEOCP
n   0.233281293 +/- 0.00721         Peri.  186.065164 +/- 1.5
a   2.613461497 +/- 0.0538          Node    56.421681 +/- 0.8
e   0.61372570 +/- 0.00855          Incl.    3.464634 +/- 0.10
P   4.22498                H 24.53  G  0.15   U  9.4
q 1.009513004 +/- 0.00296    Q 4.217409991 +/- 0.109      (J2000 ecliptic)
From 14 observations 2026 Apr. 16 (14.7 hr); mean residual 0".15
Residuals in arcseconds: 
260416 G96  .22+  .20-    260416 H01  .03-  .04+    260416 104  .34-  .25+    
260416 G96  .12-  .01+    260416 H01  .04+  .04-    260416 L01  .30-  .05-    
260416 G96  .01-  .07+    260416 H01  .01-  .03+    260416 104  .12+  .12-    
260416 G96  .08-  .02-    260416 033  .18+  .10+    260416 L01  .17+  .31-    
260416 H01  .04-  .08+    260416 033  .17+  .14+    

Ephemerides (geocentric):
Date (UTC) HH   RA             Dec           delta  r     elong  mag " sig PA
---- --------  ------------   ------------  ------ ------ -----  --- --------
2026 04 17 00  15 02 43.149   +04 44 45.79  .08736 1.0831 154.3 20.5 .953 143
2026 04 17 01  15 03 11.079   +04 43 21.72  .08717 1.0829 154.2 20.5 1.13 136
2026 04 17 02  15 03 39.122   +04 41 57.14  .08698 1.0827 154.2 20.5 1.35 130
2026 04 17 03  15 04 07.279   +04 40 32.07  .08679 1.0825 154.1 20.5 1.60 126
2026 04 17 04  15 04 35.550   +04 39 06.49  .08660 1.0823 154.0 20.5 1.88 122
2026 04 17 05  15 05 03.936   +04 37 40.40  .08642 1.0821 154.0 20.5 2.18 119
2026 04 17 06  15 05 32.436   +04 36 13.81  .08623 1.0819 153.9 20.5 2.51 117
2026 04 17 07  15 06 01.051   +04 34 46.71  .08605 1.0817 153.9 20.5 2.87 115
2026 04 17 08  15 06 29.783   +04 33 19.09  .08586 1.0815 153.8 20.5 3.26 114
2026 04 17 09  15 06 58.630   +04 31 50.96  .08567 1.0813 153.7 20.5 3.68 112
2026 04 17 10  15 07 27.594   +04 30 22.31  .08549 1.0811 153.7 20.5 4.12 111
2026 04 17 11  15 07 56.676   +04 28 53.14  .08531 1.0809 153.6 20.5 4.59 110
2026 04 17 12  15 08 25.874   +04 27 23.45  .08512 1.0807 153.6 20.5 5.08 110
2026 04 17 13  15 08 55.191   +04 25 53.23  .08494 1.0805 153.5 20.5 5.61 109
2026 04 17 14  15 09 24.626   +04 24 22.49  .08476 1.0803 153.4 20.5 6.16 108
2026 04 17 15  15 09 54.180   +04 22 51.22  .08457 1.0801 153.4 20.5 6.74 108
2026 04 17 16  15 10 23.853   +04 21 19.42  .08439 1.0799 153.3 20.5 7.35 107
2026 04 17 17  15 10 53.646   +04 19 47.08  .08421 1.0798 153.2 20.5 7.98 107
2026 04 17 18  15 11 23.559   +04 18 14.21  .08403 1.0796 153.2 20.5 8.65 107
2026 04 17 19  15 11 53.593   +04 16 40.80  .08385 1.0794 153.1 20.5 9.34 106
2026 04 17 20  15 12 23.748   +04 15 06.85  .08367 1.0792 153.0 20.5 10.1 106
2026 04 17 21  15 12 54.024   +04 13 32.35  .08349 1.0790 153.0 20.5 10.8 106
2026 04 17 22  15 13 24.422   +04 11 57.32  .08331 1.0788 152.9 20.5 11.6 105
2026 04 17 23  15 13 54.942   +04 10 21.73  .08313 1.0786 152.8 20.5 12.4 105
2026 04 18 00  15 14 25.586   +04 08 45.60  .08295 1.0784 152.8 20.4 13.3 105
2026 04 18 01  15 14 56.352   +04 07 08.91  .08278 1.0782 152.7 20.4 14.1 105
2026 04 18 02  15 15 27.242   +04 05 31.67  .08260 1.0780 152.6 20.4 15.0 105
2026 04 18 03  15 15 58.256   +04 03 53.88  .08242 1.0778 152.6 20.4 16.0 105
2026 04 18 04  15 16 29.394   +04 02 15.52  .08225 1.0776 152.5 20.4 16.9 104
2026 04 18 05  15 17 00.658   +04 00 36.61  .08207 1.0775 152.4 20.4 17.9 104
2026 04 18 06  15 17 32.046   +03 58 57.13  .08189 1.0773 152.4 20.4 19.0 104
2026 04 18 07  15 18 03.561   +03 57 17.09  .08172 1.0771 152.3 20.4 20.0 104
2026 04 18 08  15 18 35.201   +03 55 36.49  .08155 1.0769 152.2 20.4 21.1 104
2026 04 18 09  15 19 06.968   +03 53 55.31  .08137 1.0767 152.2 20.4 22.3 104
2026 04 18 10  15 19 38.862   +03 52 13.56  .08120 1.0765 152.1 20.4 23.5 104
2026 04 18 11  15 20 10.884   +03 50 31.24  .08103 1.0763 152.0 20.4 24.7 104
2026 04 18 12  15 20 43.033   +03 48 48.35  .08085 1.0761 151.9 20.4 25.9 104
2026 04 18 13  15 21 15.310   +03 47 04.87  .08068 1.0759 151.9 20.4 27.2 104
2026 04 18 14  15 21 47.716   +03 45 20.82  .08051 1.0758 151.8 20.4 28.5 103
2026 04 18 15  15 22 20.251   +03 43 36.19  .08034 1.0756 151.7 20.4 29.8 103
2026 04 18 16  15 22 52.915   +03 41 50.97  .08017 1.0754 151.6 20.4 31.2 103
2026 04 18 17  15 23 25.709   +03 40 05.17  .08000 1.0752 151.6 20.4 32.6 103
2026 04 18 18  15 23 58.633   +03 38 18.78  .07983 1.0750 151.5 20.4 34.1 103
2026 04 18 19  15 24 31.688   +03 36 31.80  .07966 1.0748 151.4 20.4 35.5 103
2026 04 18 20  15 25 04.873   +03 34 44.23  .07950 1.0746 151.3 20.4 37.1 103
2026 04 18 21  15 25 38.190   +03 32 56.07  .07933 1.0744 151.3 20.4 38.6 103
2026 04 18 22  15 26 11.639   +03 31 07.31  .07916 1.0743 151.2 20.4 40.2 103
2026 04 18 23  15 26 45.220   +03 29 17.95  .07899 1.0741 151.1 20.4 41.9 103